Weather in Mryn

Ukraine / Chernihiv Region     51°03′07″N   31°33′09″E
temp.,
°C
wind,
m/s
gust,
m/s
humid.,
%
clouds,
%
prec.,
mm/h
press.,
hPa
HPBL,
m
21 april, wed
wed2100:00+6nnw4793100 0.0 1008427
03:00+6nw4692100 0.1 1008460
06:00+6nw5894100 1.4 1008697
09:00+6wnw4786100 3.9 1010710
12:00+9w3571100 0.3 10111022
15:00+11wnw565888 0.9 10111517
18:00+11w356132 0.0 10121030
21:00+7ssw337710 0.0 101342
22 april, thu
thu2200:00+6ssw498664 0.0 1014151
03:00+6ssw4987100 0.0 1014176
06:00+5ssw498962 0.0 1015170
09:00+11ssw577283 0.0 1016340
12:00+15ssw7105534 0.1 10161586
15:00+16ssw71152100 0.4 10151859
18:00+14ssw7126384 0.4 1014663
21:00+10s4107965 0.7 1015173
23 april, fri
fri2300:00+8ssw349253 0.4 101563
03:00+7ssw239460 0.4 101453
06:00+8wnw3693100 0.1 1014365
09:00+5nnw4688100 0.1 1016426
12:00+5nw2585100 1.3 1017590
15:00+5sw1283100 2.8 1016479
18:00+8w356998 0.3 1015812
21:00+5wsw3478100 0.4 101577
24 april, sat
sat2400:00+4wnw238529 0.1 101542
03:00+2w36895 0.1 1015113
06:00+1w23901 0.0 101557
09:00+5wsw4573100 0.0 1015590
12:00+6wsw5476100 0.5 1015833
15:00+6w677348 1.3 1015926
18:00+6wnw587094 0.6 10151124
21:00+3wsw4117845 0.8 1016245
25 april, sun
sun2500:00+2wsw4108450 0.0 1017266
03:00+1wsw49925 0.0 1017251
06:00+1w4109580 0.0 1017311
09:00+5w58695 0.0 1017829
12:00+6w7106199 0.4 10171641
15:00+8w81045100 0.7 10162315
18:00+7w69545 0.1 10171926
21:00+3wsw410725 0.1 1017259